This is the latest recevied weather packets stored in our database for station/object DW2488. If no packets are shown the sender has not sent any weather packets the latest 10 day(s).
| Time | Temp. | Humidity | Pressure | Rain* | Wind** | Luminosity | Snow |
|---|---|---|---|---|---|---|---|
| 1787793629 | 17.78° C | 66% | 1027.7 hPa | 0 mm | - | 842 W/m² | - |
| 1787792723 | 17.22° C | 66% | 1027.8 hPa | 0 mm | - | 341 W/m² | - |
| 1787791831 | 17.22° C | 68% | 1027.9 hPa | 0 mm | - | 373 W/m² | - |
| 1787790923 | 17.22° C | 67% | 1028 hPa | 0 mm | - | 264 W/m² | - |
| 1787790019 | 17.22° C | 68% | 1028 hPa | 0 mm | - | 318 W/m² | - |
| 1787789119 | 17.22° C | 67% | 1028 hPa | 0 mm | - | 388 W/m² | - |
| 1787788218 | 16.11° C | 69% | 1028.2 hPa | 0 mm | - | 582 W/m² | - |
| 1787787311 | 16.11° C | 70% | 1028 hPa | 0 mm | - | 316 W/m² | - |
| 1787786411 | 16.11° C | 72% | 1028 hPa | 0 mm | - | 366 W/m² | - |
| 1787785511 | 15° C | 74% | 1027.8 hPa | 0 mm | - | 543 W/m² | - |
| 1787785037 | 13.89° C | 80% | 1027.8 hPa | 0 mm | - | 424 W/m² | - |
| 1787783711 | 13.33° C | 86% | 1027.7 hPa | 0 mm | - | 251 W/m² | - |
| 1787782811 | 13.33° C | 90% | 1027.6 hPa | 0 mm | - | 127 W/m² | - |
| 1787781895 | 13.33° C | 89% | 1027.6 hPa | 0 mm | - | 120 W/m² | - |
| 1787780980 | 12.78° C | 90% | 1027.4 hPa | 0 mm | - | 81 W/m² | - |
| 1787780056 | 12.78° C | 90% | 1027.3 hPa | 0 mm | - | 54 W/m² | - |
| 1787779152 | 12.78° C | 89% | 1027 hPa | 0 mm | - | 44 W/m² | - |
| 1787778257 | 12.22° C | 88% | 1027 hPa | 0 mm | - | 23 W/m² | - |
| 1787777323 | 12.22° C | 88% | 1026.7 hPa | 0 mm | - | 12 W/m² | - |
| 1787776392 | 12.22° C | 88% | 1026.5 hPa | 0 mm | - | 7 W/m² | - |
| 1787775499 | 12.22° C | 88% | 1026.4 hPa | 0 mm | - | 0 W/m² | - |
| 1787774600 | 12.22° C | 88% | 1026.4 hPa | 0 mm | - | 0 W/m² | - |
| 1787773700 | 12.22° C | 87% | 1026.3 hPa | 0 mm | - | 0 W/m² | - |
| 1787772733 | 12.22° C | 87% | 1026.1 hPa | 0 mm | - | 0 W/m² | - |
| 1787771832 | 12.78° C | 87% | 1026.1 hPa | 0.25 mm | - | 0 W/m² | - |
* Rain latest hour (hover to see other rain measurements)
** Current wind speed in m/s (hover to see current wind gust speed)